Vertical_Velocity
0 -0 -1 -1 -1 -1 -1 -1 -1 -1 -1 -0 -1 -2 -2 -1 -1 -2 -10 -1 -3 1 0 0 -0 -1 0 0 0 -1 -0 -0 -1 0 2 3 1 1 1 -2 2 -1 -1 -1 0
0 -0 -0 -0 -1 -1 -1 -0 -1 -1 0 0 -1 -1 -1 -1 -1 -6 6 -1 1 1 0 2 1 2 2 1 1 1 -0 -1 -1 -0 1 -1 -0 -2 1 1 2 1 2 1 0
-0 1 0 -0 -0 -0 -1 -1 -1 -1 -0 -0 -0 -1 -1 -1 -1 -2 -3 -4 3 3 -2 -0 1 -1 0 -0 -0 -0 -0 -0 -2 -0 -1 -1 1 -1 0 2 -6 -5 -5 -0 5
0 0 -0 -1 0 -0 -1 -1 -0 -1 -0 -1 -0 -1 -0 0 3 1 -1 -5 3 3 -1 -0 2 1 0 0 1 2 -1 0 -3 -1 0 -0 -0 0 2 4 2 2 -0 -3 -4
0 0 0 -0 -1 -0 -1 -1 -1 0 -0 -0 -0 0 -0 -0 -6 1 1 0 2 1 -1 0 0 -1 1 0 0 1 -1 0 -2 5 -1 3 1 1 1 2 2 1 2 1 1
-1 -0 0 0 -0 -1 -0 -0 -0 0 0 -1 0 0 -0 -0 -1 0 2 -1 2 -1 3 2 0 0 1 0 1 0 0 -1 1 1 2 -1 2 0 -2 1 4 3 3 1 -2
0 -0 0 -1 -0 -0 -1 0 -0 0 -0 -0 0 0 -0 -11 0 2 0 -0 0 2 1 -0 1 1 1 -1 1 0 0 -2 0 1 1 -3 -1 0 1 1 1 3 2 2 3
-1 0 -0 -0 -0 -0 0 -0 0 -1 -0 0 -0 -0 -9 0 -1 1 1 -0 -2 -1 2 1 -0 0 1 -2 -1 -1 -1 -1 2 -2 1 5 1 2 2 1 1 2 0 0 4
-0 -0 0 -1 -0 -0 0 1 0 -0 -0 -0 -1 -1 -6 0 0 3 1 1 1 1 4 0 -1 -0 -0 -0 -1 -3 0 -0 -3 1 1 -2 1 3 -1 0 1 -2 -1 3 -3
-1 -0 -0 0 -0 0 0 1 0 0 0 0 -0 1 0 3 3 1 2 2 2 2 0 0 -2 0 -0 -1 1 0 -1 -2 1 -0 -4 1 2 1 2 -1 -0 0 -2 2 1
-1 -1 -0 -0 1 1 -1 -1 1 0 -0 -4 1 0 1 1 2 1 3 1 2 2 1 -0 5 -0 1 0 0 1 1 1 -2 1 -3 1 0 1 1 1 -0 -1 0 1 -3
-1 -1 -0 1 1 2 -0 -0 -0 -1 -0 -0 -1 -3 -0 0 -0 3 2 0 0 -0 1 5 -1 -1 -0 -0 1 1 1 -2 0 -0 -3 0 3 1 -0 2 -1 -1 0 -2 -2
-1 -0 0 1 1 2 -1 -0 0 -1 1 -0 -0 -1 -1 0 -1 -1 1 -2 -1 1 0 -2 1 -1 -1 -1 2 -2 2 -1 0 1 1 -0 1 -2 -1 0 2 -0 -1 -0 -1
-1 -0 1 1 -1 0 -2 -1 -1 0 2 3 1 0 0 1 1 -1 3 -6 1 -3 -1 -1 -1 1 1 0 2 1 1 1 1 3 1 4 3 -1 -1 -0 -0 1 -1 -2 -2
-1 -0 1 1 -0 -0 -2 1 0 2 4 8 3 1 2 2 -1 5 -2 5 -2 -0 5 -7 0 1 1 -2 0 -0 -1 -1 -0 -0 0 -0 2 -1 0 -1 1 0 -0 0 -0
-1 -0 1 1 -0 1 1 1 0 9 3 3 1 1 3 1 2 3 -1 6 1 -1 0 -4 -0 2 -2 -1 -1 -1 1 -0 -0 -0 4 1 4 -0 -0 -1 1 0 1 -0 -2
-1 0 -0 1 -1 0 1 1 6 2 3 4 1 1 -1 1 3 1 1 6 -2 6 2 1 -5 -1 1 5 2 4 4 2 4 5 2 0 3 2 -1 -1 0 0 0 -1 1
-0 0 1 3 -0 1 1 5 3 -0 -1 1 -1 3 -2 -2 2 2 3 4 3 0 0 -1 9 -0 0 -3 -2 -2 0 -1 -1 1 2 1 -1 4 -3 -1 0 -1 3 -0 -1
1 1 2 3 2 2 2 3 -2 -1 1 -1 3 1 2 1 -2 1 -1 -3 -5 -2 -1 -0 -2 0 1 -0 3 5 4 2 -3 1 4 0 0 3 1 -0 -0 2 3 1 -0
-0 0 1 1 2 3 2 -1 0 -0 0 1 -0 -1 -1 0 1 3 1 -7 -2 -3 1 1 2 0 2 1 2 4 -1 7 1 1 -0 0 -1 -3 3 0 0 2 3 1 0
2 -1 2 2 2 3 -0 -2 -0 -1 2 2 0 0 -1 -4 -2 -1 -5 -1 1 1 1 -2 4 4 3 1 -3 4 3 -0 -1 2 1 0 -0 -3 -4 -4 -2 1 -1 2 1
1 -2 5 3 4 -1 0 -0 1 -1 1 -1 2 1 -2 -0 0 2 -5 -1 -1 -7 -3 -6 -1 0 -4 -0 1 0 -1 -3 3 0 1 2 1 0 -2 -2 -2 0 5 2 0
-1 -0 0 -2 1 1 -1 -1 0 1 -1 0 0 0 0 -1 2 0 -0 -1 -2 -2 -9 -3 0 1 1 7 4 1 0 -0 -0 0 -2 2 -0 1 2 2 2 -2 1 2 -1
1 1 0 0 -2 -0 -0 -1 -1 -0 -0 0 0 1 1 1 1 0 0 2 2 1 3 -0 0 -4 -6 2 -1 1 1 1 -1 1 -1 -5 -2 7 3 -0 3 3 1 -0 1
-0 1 -0 1 2 0 1 1 -0 -0 0 1 -1 1 -2 1 1 -0 0 3 1 2 -0 -1 -1 1 -0 -0 1 -1 -1 1 0 -1 1 -4 -1 -3 -4 -3 -3 -2 2 0 -1
0 0 -1 0 -1 1 1 -1 1 -3 3 1 2 -0 0 -0 -1 -1 -1 -0 -3 5 -0 1 2 -0 1 0 0 0 0 0 -0 0 1 1 -3 0 1 3 3 0 0 1 1
-1 -1 -0 -0 0 1 0 -1 -1 1 -2 2 2 0 0 2 -0 1 -2 -1 1 -2 0 -1 -1 1 1 0 1 4 -3 -1 -0 0 0 1 -3 0 4 2 -2 0 -0 -2 -1
Height
1514 1512 1510 1510 1510 1510 1510 1511 1511 1512 1513 1514 1514 1515 1516 1516 1517 1518 1517 1520 1521 1521 1523 1523 1522 1521 1520 1521 1521 1520 1522 1526 1519 1519 1515 1517 1519 1520 1521 1523 1524 1525 1527 1529 1530
1513 1510 1509 1508 1507 1507 1508 1509 1509 1510 1511 1512 1513 1513 1514 1514 1515 1514 1517 1518 1520 1521 1522 1523 1522 1521 1521 1521 1521 1521 1524 1520 1514 1512 1512 1515 1517 1518 1520 1522 1524 1525 1527 1529 1530
1513 1510 1507 1506 1505 1505 1506 1506 1507 1508 1509 1510 1511 1512 1512 1513 1514 1511 1513 1515 1518 1520 1522 1522 1522 1521 1521 1521 1521 1521 1520 1517 1514 1512 1511 1513 1515 1516 1516 1519 1518 1520 1522 1527 1530
1512 1509 1507 1505 1504 1503 1504 1504 1505 1506 1508 1508 1509 1510 1511 1512 1514 1509 1510 1513 1516 1518 1521 1521 1521 1521 1520 1519 1519 1520 1514 1515 1513 1510 1512 1510 1510 1511 1513 1516 1517 1517 1522 1526 1530
1511 1508 1505 1504 1502 1502 1502 1502 1503 1505 1506 1507 1508 1509 1510 1512 1509 1508 1509 1512 1515 1518 1519 1521 1521 1521 1520 1520 1519 1518 1514 1512 1509 1509 1509 1512 1512 1514 1516 1515 1516 1518 1522 1525 1531
1509 1507 1504 1502 1500 1499 1499 1500 1502 1503 1505 1506 1507 1508 1509 1511 1507 1508 1509 1512 1514 1516 1518 1520 1521 1520 1520 1518 1518 1516 1513 1509 1508 1509 1510 1512 1515 1514 1518 1517 1518 1520 1524 1527 1531
1507 1505 1503 1500 1498 1497 1497 1498 1500 1502 1504 1505 1506 1507 1507 1505 1506 1508 1510 1512 1514 1516 1518 1519 1519 1520 1519 1516 1515 1514 1511 1508 1509 1509 1509 1511 1516 1522 1523 1522 1524 1526 1526 1528 1533
1505 1503 1501 1499 1496 1495 1495 1497 1499 1501 1502 1504 1505 1506 1503 1502 1504 1507 1509 1512 1514 1515 1517 1519 1519 1518 1518 1517 1515 1514 1513 1516 1511 1510 1510 1510 1522 1524 1526 1525 1528 1530 1530 1532 1534
1502 1500 1498 1496 1494 1494 1494 1496 1498 1500 1502 1503 1505 1505 1501 1500 1503 1506 1508 1511 1513 1515 1517 1518 1518 1518 1518 1517 1518 1518 1524 1522 1514 1511 1510 1510 1525 1527 1527 1528 1530 1531 1531 1531 1533
1500 1498 1496 1494 1493 1492 1493 1495 1498 1500 1501 1503 1504 1507 1499 1499 1501 1504 1508 1510 1513 1515 1517 1518 1519 1518 1519 1517 1531 1531 1526 1521 1522 1513 1513 1517 1525 1526 1528 1529 1530 1531 1528 1527 1530
1497 1496 1494 1492 1490 1491 1493 1496 1501 1502 1499 1496 1498 1497 1496 1498 1500 1504 1507 1509 1511 1513 1514 1517 1517 1520 1521 1521 1523 1524 1526 1526 1517 1516 1517 1524 1525 1524 1526 1528 1530 1530 1528 1528 1531
1495 1493 1491 1489 1489 1490 1492 1492 1493 1496 1495 1494 1495 1495 1496 1497 1500 1502 1506 1509 1510 1511 1514 1517 1518 1517 1520 1521 1524 1524 1523 1522 1518 1517 1515 1524 1525 1525 1524 1526 1528 1529 1529 1530 1532
1492 1491 1489 1487 1487 1489 1490 1492 1492 1492 1493 1492 1491 1492 1495 1497 1498 1500 1504 1506 1508 1511 1513 1516 1516 1516 1518 1521 1523 1517 1520 1519 1516 1519 1520 1524 1523 1525 1525 1525 1526 1527 1527 1528 1530
1489 1488 1487 1486 1488 1487 1489 1491 1492 1493 1492 1490 1490 1490 1492 1494 1497 1498 1502 1506 1508 1509 1514 1515 1516 1517 1518 1520 1519 1521 1513 1514 1514 1516 1527 1526 1537 1527 1526 1525 1523 1525 1527 1529 1530
1485 1484 1483 1484 1484 1485 1488 1490 1492 1494 1501 1487 1489 1489 1490 1493 1492 1496 1500 1503 1505 1508 1513 1515 1514 1515 1518 1516 1515 1516 1511 1512 1514 1519 1522 1527 1527 1523 1525 1522 1521 1521 1524 1526 1529
1481 1479 1479 1480 1482 1484 1486 1489 1493 1496 1500 1485 1485 1488 1491 1491 1491 1494 1498 1503 1505 1507 1510 1510 1512 1513 1511 1511 1512 1510 1513 1515 1518 1518 1530 1534 1532 1523 1520 1519 1519 1520 1522 1524 1527
1476 1474 1475 1476 1480 1483 1485 1489 1493 1496 1481 1485 1483 1484 1485 1488 1490 1491 1495 1500 1504 1516 1515 1510 1508 1507 1508 1510 1510 1511 1511 1524 1530 1529 1531 1533 1535 1518 1516 1517 1519 1519 1520 1523 1526
1471 1470 1471 1475 1478 1481 1485 1488 1496 1482 1480 1475 1479 1482 1484 1484 1488 1492 1496 1500 1503 1503 1511 1517 1518 1502 1500 1500 1501 1507 1503 1516 1541 1535 1530 1533 1530 1518 1514 1518 1519 1518 1518 1521 1525
1469 1469 1470 1474 1478 1481 1486 1488 1482 1480 1476 1475 1479 1483 1485 1484 1484 1489 1493 1495 1495 1498 1507 1511 1511 1497 1498 1497 1496 1507 1510 1506 1523 1538 1531 1528 1523 1516 1516 1516 1517 1516 1516 1520 1523
1469 1470 1473 1476 1479 1483 1484 1488 1481 1478 1476 1474 1478 1476 1484 1482 1483 1486 1491 1486 1492 1495 1496 1503 1511 1496 1495 1495 1498 1497 1502 1512 1514 1534 1537 1525 1528 1514 1515 1515 1517 1516 1513 1517 1522
1471 1472 1476 1478 1481 1484 1483 1482 1479 1476 1476 1474 1473 1475 1475 1478 1479 1484 1485 1482 1482 1489 1495 1497 1504 1501 1498 1495 1497 1505 1503 1509 1508 1516 1520 1525 1508 1498 1501 1505 1513 1513 1515 1517 1520
1471 1475 1479 1481 1483 1484 1481 1480 1478 1474 1474 1472 1471 1469 1468 1472 1477 1479 1477 1471 1475 1481 1493 1493 1497 1505 1498 1491 1493 1494 1490 1491 1503 1520 1521 1519 1506 1502 1500 1504 1508 1516 1514 1518 1520
1473 1478 1480 1480 1479 1480 1480 1478 1477 1473 1471 1469 1467 1466 1467 1470 1478 1474 1474 1470 1473 1476 1483 1489 1497 1509 1498 1495 1495 1492 1494 1492 1495 1499 1515 1512 1501 1503 1504 1508 1511 1514 1517 1518 1522
1473 1477 1481 1481 1480 1479 1479 1478 1476 1470 1470 1468 1466 1465 1468 1471 1472 1472 1471 1470 1472 1473 1474 1478 1490 1493 1495 1490 1486 1492 1491 1491 1484 1498 1502 1497 1486 1500 1503 1506 1510 1512 1515 1520 1524
1473 1477 1477 1476 1478 1480 1481 1479 1476 1471 1469 1468 1465 1463 1464 1470 1470 1470 1467 1468 1472 1474 1477 1475 1484 1491 1490 1489 1488 1485 1486 1489 1489 1491 1495 1486 1493 1476 1492 1499 1504 1510 1515 1519 1523
1476 1477 1478 1479 1480 1479 1481 1476 1475 1471 1469 1465 1466 1460 1462 1463 1463 1465 1467 1469 1467 1475 1476 1480 1488 1488 1493 1490 1488 1487 1487 1489 1490 1492 1493 1493 1488 1486 1491 1499 1505 1508 1513 1518 1521
1479 1479 1480 1479 1479 1479 1478 1476 1473 1474 1466 1465 1464 1462 1463 1464 1466 1464 1467 1472 1471 1471 1477 1479 1484 1488 1494 1493 1488 1494 1484 1485 1487 1489 1488 1491 1481 1487 1490 1494 1499 1505 1511 1517 1520